#timestamp,LO_Frequency,Hit,StdDev 
1701997215.7,286046996.9,P
1701997235.5,286046994.9,Y
1701997255.4,286046999.2,P
1701997275.2,286047000.8,N
1701997295.0,286046999.8,N
1701997295.9,286046999.8,N
1701997315.8,286047001.9,N
1701997335.6,286047000.2,N
1701997355.5,286047001.2,N
1701997375.3,286046998.7,N
1701997395.1,286046998.9,N
1701997415.9,286046999.3,N
1701997435.7,286046999.5,N
1701997455.5,286046996.7,Y
1701997475.4,286047000.6,P
1701997495.2,286047000.9,N
1701997515.1,286046998.5,P
1701997516.0,286046998.5,N
1701997535.8,286047000.8,N
1701997555.6,286047001.0,N
1701997575.5,286046998.7,N
1701997595.3,286046999.5,N
1701997615.1,286046998.8,N
1701997635.9,286046998.8,N
1701997655.7,286047000.9,N
1701997675.6,286047001.1,N
1701997695.4,286046998.9,N
1701997715.2,286046999.0,N
1701997735.1,286046997.1,N
1701997736.0,286046997.1,N
1701997755.8,286046996.5,N
1701997775.6,286046997.0,N
1701997795.5,286046999.0,N
1701997815.3,286046998.6,N
1701997835.2,286046998.7,N
1701997855.0,286046998.8,N
1701997855.9,286046998.8,N
1701997875.8,286046996.6,N
1701997895.6,286046998.4,N
1701997915.4,286046999.3,N
1701997935.3,286046999.4,N
1701997955.1,286046999.0,N
1701997975.9,286046999.0,N
1701997995.7,286046999.0,N
1701998015.5,286046996.8,N
1701998035.4,286046999.0,N
1701998055.2,286046996.5,N
1701998075.1,286046997.1,N
1701998076.0,286046997.1,N
1701998095.8,286046996.7,N
1701998115.6,286046999.2,N
1701998135.5,286046997.8,N
1701998155.3,286046999.1,N
1701998175.2,286046998.4,N
1701998195.9,286046999.0,N
1701998215.7,286046997.8,N
1701998235.6,286046999.5,N
1701998255.4,286046998.4,N
1701998275.2,286046997.1,N
1701998295.1,286046999.6,N
1701998296.0,286046999.6,N
1701998315.8,286046997.2,N
1701998335.7,286046998.0,N
1701998355.5,286046996.0,Y
1701998375.3,286046998.0,P
1701998395.2,286046997.1,P
1701998415.0,286046999.3,N
1701998415.9,286046999.3,N
1701998435.8,286046999.5,N
1701998455.6,286046997.0,Y
1701998475.4,286046999.1,P
1701998495.3,286046999.5,N
1701998515.1,286046996.9,P
1701998535.8,286046999.6,N
1701998555.7,286046996.7,Y
1701998575.5,286047000.4,P
1701998595.4,286047001.1,N
1701998615.2,286046998.2,N
1701998635.0,286047001.2,N
1701998635.9,286047001.2,N
1701998655.8,286047001.1,N
1701998675.6,286047001.1,N
1701998695.5,286047000.3,N
1701998715.3,286046998.8,N
1701998735.1,286046998.5,N
1701998755.9,286046999.1,N
1701998775.7,286046999.6,N
1701998795.6,286046997.9,N
1701998815.4,286046997.0,N
1701998835.2,286046999.6,N
1701998855.1,286046999.2,N
1701998856.0,286046999.2,N
1701998875.8,286046997.1,N
1701998895.6,286046999.6,N
1701998915.5,286046999.0,N
1701998935.3,286047001.2,N
1701998955.2,286046998.7,N
1701998975.9,286046999.3,N
1701998995.7,286046998.2,N
1701999015.6,286046998.9,N
1701999035.4,286046999.5,N
1701999055.3,286046998.9,N
1701999075.1,286046998.6,N
1701999076.0,286046998.6,N
1701999095.8,286046999.5,N
1701999115.7,286046996.9,N
1701999135.5,286046997.2,N
1701999155.3,286046999.6,N
1701999175.2,286046999.0,N
1701999195.0,286046996.6,N
1701999195.9,286046996.6,N
1701999215.8,286046996.5,Y
1701999235.6,286046999.3,P
1701999255.4,286047000.7,N
1701999275.3,286046999.9,N
1701999295.1,286047000.8,N
1701999315.9,286047000.8,N
1701999335.7,286046999.7,N
1701999355.5,286046999.7,N
1701999375.4,286047000.4,N
1701999395.2,286047001.1,N
1701999415.0,286047000.7,N
1701999415.9,286047000.7,N
1701999435.8,286047002.5,Y
1701999455.6,286047001.5,P
1701999475.5,286047002.1,P
1701999495.3,286046999.9,N
1701999515.1,286047000.2,N
1701999535.9,286047002.0,N
1701999555.7,286047002.2,N
1701999575.6,286047002.1,N
1701999595.4,286047002.3,N
1701999615.2,286046999.7,N
1701999635.1,286047001.8,N
1701999636.0,286047001.8,N
1701999655.8,286047000.4,N
1701999675.6,286047000.6,N
1701999695.5,286047002.8,N
1701999715.3,286047002.6,N
1701999735.2,286047004.3,Y
1701999755.9,286047000.0,P
1701999775.7,286047002.5,P
1701999795.6,286047001.9,N
1701999815.4,286047004.4,Y
1701999835.3,286047000.4,P
1701999855.1,286046999.9,N
1701999856.0,286046999.9,N
1701999875.8,286046998.1,Y
1701999895.7,286046998.5,P
1701999915.5,286047000.7,N
1701999935.3,286047000.0,N
1701999955.2,286047001.1,N
1701999975.0,286047000.4,N
1701999975.9,286047000.4,N
1701999995.8,286047000.8,N
1702000015.6,286046999.3,N
1702000035.4,286046998.6,N
1702000055.5,286047000.4,N
1702000075.4,286046998.4,N
1702000095.2,286047000.4,N
1702000115.1,286047000.2,N
1702000116.0,286047000.2,N
1702000135.8,286047004.3,Y
1702000155.6,286047003.6,P
1702000175.5,286047006.0,P
1702000195.3,286047004.4,N
1702000215.1,286047003.5,N
1702000235.9,286047005.4,N
1702000255.7,286047005.1,N
1702000275.6,286047003.4,N
1702000295.4,286047003.6,N
1702000315.2,286047001.4,N
1702000335.1,286047001.4,N
1702000336.0,286047001.4,N
1702000355.8,286047003.9,N
1702000375.7,286047002.0,N
1702000395.5,286047003.6,N
1702000415.3,286047006.0,Y
1702000435.2,286047000.0,P
1702000455.0,286047000.1,N
1702000455.9,286047000.1,N
1702000475.8,286047001.5,N
1702000495.6,286047000.2,N
1702000515.4,286047000.3,N
1702000535.3,286047000.5,N
1702000555.1,286047002.7,N
1702000575.9,286047001.7,N
1702000595.7,286047001.9,N
1702000615.5,286046999.7,N
1702000635.4,286047001.4,N
1702000655.2,286047003.4,Y
1702000675.1,286047000.0,P
1702000676.0,286047000.0,N
1702000695.8,286047001.9,P
1702000715.2,286047000.6,N
1702000735.0,286046998.4,N
1702000735.9,286046998.4,N
1702000755.8,286047000.4,N
1702000775.6,286047002.7,N
1702000795.5,286047000.9,N
